Regional Weather Roundup
Issued by NWS

Home | Current Version | Previous Version | Text Only | Print | Product List | Glossary On
Versions: 1 2 3 4 5 6 7 8 9 10 11 12 13 14 15 16 17 18 19 20 21 22 23 24 25 26 27 28
000
ASUS45 KCYS 192010
RWRWY

WYOMING REGIONAL WEATHER ROUNDUP
NATIONAL WEATHER SERVICE CHEYENNE WY
200 PM MDT THU OCT 19 2017

NOTE:  "FAIR" INDICATES FEW OR NO CLOUDS BELOW 12,000 FEET
WITH NO SIGNIFICANT WEATHER AND/OR OBSTRUCTIONS TO VISIBILITY.

WYZ001-192100-
YELLOWSTONE NATIONAL PARK

CITY           SKY/WX    TMP DP  RH WIND       PRES   REMARKS
LK YELLOWSTONE   N/A     56  12  17 VRB7      30.04F
W YELLOWSTONE  NOT AVBL

$$
WYZ002>013-054>058-071-098>099-192100-
NORTHERN WYOMING

CITY           SKY/WX    TMP DP  RH WIND       PRES   REMARKS
JACKSON        FAIR      61  24  24 SW8       29.98F
CODY           FAIR      72  16  12 W6        29.85F
GREYBULL       FAIR      72  26  18 SE8       29.80F
WORLAND        FAIR      76  23  14 VRB3      29.81F
SHERIDAN       FAIR      81  26  13 E7        29.75F
BUFFALO        FAIR      78  19  11 E9        29.81F
GILLETTE       FAIR      76  21  12 SW10      29.80F
HULETT         FAIR      77  23  13 SW17      29.83F
NEWCASTLE      FAIR      73  19  13 SE14      29.87F

$$
WYZ014>020-022>026-101>103-192100-
CENTRAL WYOMING

CITY           SKY/WX    TMP DP  RH WIND       PRES   REMARKS
BIG PINEY      FAIR      60  14  16 S6        30.04F
PINEDALE       FAIR      61  10  13 SE5       30.05F
DUBOIS         FAIR      61  12  15 CALM      29.99F
LANDER         FAIR      64  22  20 N5        29.92F
RIVERTON       FAIR      65  19  17 E3        29.92F
CASPER         FAIR      73  12   9 SW29G36   29.92F
DOUGLAS        FAIR      79  16   9 VRB3      29.90F

$$
WYZ021-027>030-104>119-192100-
SOUTHERN WYOMING

CITY           SKY/WX    TMP DP  RH WIND       PRES   REMARKS
EVANSTON       FAIR      67  17  14 SW16      30.03F
KEMMERER       FAIR      64  12  13 S3        30.05F
FORT BRIDGER   FAIR      64  12  13 E6        30.07F
ROCK SPRINGS   FAIR      64   8  11 W6        30.04F
DIXON          FAIR      69  16  13 SW15G23   30.08F
RAWLINS        FAIR      68  12  11 SW23      30.04F
SARATOGA       FAIR      70  18  13 SW15G21   30.07F
LARAMIE        PTSUNNY   69  17  13 SW15G25   30.05F
CHEYENNE       FAIR      73  14  10 VRB5      30.00F
TORRINGTON     FAIR      78  16   9 SE7       29.89F
PINE BLUFFS    FAIR      73  19  13 S10G18    29.97F

$$




USA.gov is the U.S. government's official web portal to all federal, state and local government web resources and services.